Regional Weather Roundup
Issued by NWS

Home | Current Version | Previous Version | Graphics & Text | Print | Product List | Glossary On
Versions: 1 2 3 4 5 6 7 8 9 10 11 12 13 14 15 16 17 18 19 20 21 22 23 24 25 26 27 28 29 30 31 32 33 34 35 36 37 38 39 40 41 42 43 44 45 46 47 48 49 50
000
ASUS43 KLSX 191559
RWRMO

WEATHER SUMMARY FOR MISSOURI
NATIONAL WEATHER SERVICE SPRINGFIELD MO
1000 AM CST FRI DEC 19 2014

NOTE: "FAIR" INDICATES FEW OR NO CLOUDS BELOW 12,000 FEET WITH NO
       SIGNIFICANT WEATHER AND/OR OBSTRUCTIONS TO VISIBILITY.
       CURRENT SKY AND/OR WEATHER CONDITIONS ARE NOT AVAILABLE FOR
       CHILLICOTHE AND FARMINGTON.

MOZ001>031-035>038-043-044-053-054-191700-
...NORTHERN AND WESTERN MISSOURI...

CITY           SKY/WX    TMP DP  RH WIND       PRES   REMARKS
KANSAS CTY INT CLOUDY    30  29  96 SE6       30.28R FOG     WCI  24
KANSAS C DTWN  CLOUDY    32  29  88 E7        30.29R WCI  26
LEE`S SUMMIT   CLOUDY    31  29  92 SE7       30.28R FOG     WCI  24
ST JOSEPH      CLOUDY    30  28  92 SE3       30.30R
CHILLICOTHE      N/A     32  29  88 E3        30.30S
KIRKSVILLE     CLOUDY    30  28  92 SE6       30.30R FOG     WCI  24

$$
MOZ066>068-077>081-088>096-101>105-191700-
...SOUTHWEST MISSOURI...

CITY           SKY/WX    TMP DP  RH WIND       PRES   REMARKS
SPRINGFIELD    CLOUDY    38  35  89 SE5       30.25R
JOPLIN         FOG       36  36 100 NE5       30.26R VSB 1/2

$$
MOZ032>034-039>042-045>050-055>058-069>072-191700-
...CENTRAL MISSOURI...

CITY           SKY/WX    TMP DP  RH WIND       PRES   REMARKS
COLUMBIA       CLOUDY    34  31  88 SE6       30.29S WCI  29
JEFFERSON CITY CLOUDY    35  32  88 SE6       30.31S FOG
ROLLA          CLOUDY    33  31  92 SE7       30.26S WCI  27
SEDALIA        CLOUDY    35  32  88 E5        30.28S FOG
WHITEMAN AFB   CLOUDY    34  33  97 VRB3      30.27S FOG
WARRENSBURG    CLOUDY    32  32 100 CALM      30.29R FOG
OSAGE BEACH    CLOUDY    36  32  87 SE5       30.27F

$$
MOZ051-052-059>065-191700-
...EAST CENTRAL MISSOURI...

CITY           SKY/WX    TMP DP  RH WIND       PRES   REMARKS
ST LOUIS INTL  PTSUNNY   34  26  72 E5        30.34R WCI  30
SPIRIT OF STL  CLOUDY    34  28  79 E3        30.34R
ST CHARLES     CLOUDY    33  28  81 SE5       30.34R HAZE    WCI  29

$$
MOZ072>076-082>087-097>100-106>115-191700-
...SOUTH CENTRAL AND SOUTHEAST MISSOURI...

CITY           SKY/WX    TMP DP  RH WIND       PRES   REMARKS
CAPE GIRARDEAU CLOUDY    35  27  72 NE6       30.32S
FARMINGTON     CLOUDY    34  28  80 N7        30.31S WCI  28
POPLAR BLUFF   CLOUDY    37  29  72 NE7       30.31S
WEST PLAINS    FOG       34  33  96 SE6       30.27S VSB 1/2 WCI  29

$$



USA.gov is the U.S. government's official web portal to all federal, state and local government web resources and services.